2021-002D (47312 NORAD) Tracking and Keplerian Element Data

This shows tracking and keplerian element data for the satellite.

Feedback or suggestion? Click here.




ElementValue
Catalog47312
Name2021-002D
Epoch Orbit670
Epoch Day62.28538145
Epoch Year2021
RAAN328.464
Inclination60.6867
Eccentricity0.0018736
Argument of Perigee338.0588
Mean Anonmoly21.9694
Mean Motion15.21821921
Decay Rate0.0001208
L11 47312U 21002D 21062.28538145 .00012080 00000-0 53629-3 0 9998
L22 47312 60.6867 328.4640 0018736 338.0588 21.9694 15.21821921 6705

Live tracking and technical data element details for 2021-002D (NORAD 47312). 2021-002D can be tracked NOW for your location showing map with azimuth and elevation plus other details from your city location.

Track the satellite on the map from your city or location and see movement details for azimuth, elevation, latitude, longitude, range, height, and movement on the map or in text.







IsCatalogInMostPopularTable: catalog: 47312, numindb: 13
Update: records affected: 1



GetName: 47312 2021-002D

Hit Count: updated at: Fri, 05 Mar 2021 06:20:39 GMT